Location: Pine Creek
(45.5072°N, 110.5649°W)
Time: 16:05:49
(UTC+00:00)

Envisat - Pass Details

Date: 24 January 2022
Orbit: 764 x 765 km, 98.2° (Epoch: 19 May)

Event Time Altitude Azimuth Distance (km) Brightness Sun altitude
Rises 12:12:01 0° 15° (NNE) 3,241 6.4 -27.8°
Reaches altitude 10° 12:14:20 10° 17° (NNE) 2,311 5.6 -27.4°
Maximum altitude 12:19:26 73° 103° (ESE) 802 3.1 -26.5°
Drops below altitude 10° 12:24:29 10° 188° (S) 2,295 5.4 -25.6°
Sets 12:26:47 0° 190° (S) 3,217 6.2 -25.2°
